Weather History for Chicago Lansing, IL

Change the Weather History Date:

Monday, April 8, 2013

  Actual Average (KMDW) Record (KMDW)
Temperature  
Mean Temperature 54 °F 48 °F  
Max Temperature 70 °F 56 °F 82 °F (2001)
Min Temperature 37 °F 39 °F 20 °F (1972)
Degree Days  
Heating Degree Days 12 18  
Month to date heating degree days 152  
Since 1 July heating degree days 5475  
Cooling Degree Days 0 0  
Month to date cooling degree days 0  
Year to date cooling degree days 1  
Growing Degree Days 4 (Base 50)    
Moisture  
Dew Point 44 °F    
Average Humidity 75    
Maximum Humidity 94    
Minimum Humidity 49    
Precipitation  
Precipitation 0.21 in 0.12 in 1.38 in (2002)
Month to date precipitation 0.92  
Year to date precipitation 7.64  
Sea Level Pressure  
Sea Level Pressure 29.81 in    
Wind  
Wind Speed 11 mph (ESE)    
Max Wind Speed 31 mph    
Max Gust Speed 44 mph    
Visibility 9 miles    
Events Rain , Thunderstorm    
T = Trace of Precipitation, MM = Missing Value Source: NWS Daily Summary

Daily Weather History Graph

Daily Weather History Graph

Search for Another Location

Airport:

Trip Planner

Search our weather history database for the weather conditions in past years. The results will help you decide how hot, cold, wet, or windy it might be!

Date:

Astronomy

Apr. 08, 2013 Rise Set
Actual Time 6:21 AM CDT 7:23 PM CDT
Civil Twilight 5:52 AM CDT 7:51 PM CDT
Nautical Twilight 5:19 AM CDT 8:25 PM CDT
Astronomical Twilight 4:43 AM CDT 9:00 PM CDT
Moon 5:12 AM CDT (4/8) 5:56 PM CDT (4/8)
Length of Visible Light 13h 58m
Length of Day
13h 02m
Waning Crescent, 3% of the Moon is Illuminated
Apr 8
Waning Crescent
Apr 10
New
Apr 18
First Quarter
Apr 25
Full
May 2
Last Quarter

Hourly Weather History & Observations

Time (CDT) Temp. Windchill Dew Point Humidity Pressure Visibility Wind Dir Wind Speed Gust Speed Precip Events Conditions
12:15 AM 38.5 °F 36.1 °F 34.3 °F 85% 29.92 in 10.0 mi ENE 3.5 mph - N/A   Clear
12:35 AM 38.5 °F 35.0 °F 34.7 °F 86% 29.92 in 7.0 mi ENE 4.6 mph - N/A   Clear
12:55 AM 39.2 °F - 35.6 °F 87% 29.92 in 7.0 mi Calm Calm - N/A   Clear
1:15 AM 39.4 °F 37.2 °F 35.1 °F 84% 29.91 in 7.0 mi East 3.5 mph - N/A   Clear
1:35 AM 39.6 °F 37.4 °F 34.9 °F 83% 29.91 in 7.0 mi East 3.5 mph - N/A   Clear
1:55 AM 37.0 °F - 33.3 °F 86% 29.91 in 7.0 mi Calm Calm - N/A   Clear
2:15 AM 39.4 °F 35.2 °F 34.7 °F 83% 29.88 in 7.0 mi East 5.8 mph - N/A   Clear
2:35 AM 40.8 °F 36.9 °F 35.4 °F 81% 29.87 in 10.0 mi ESE 5.8 mph - N/A   Clear
2:55 AM 44.4 °F 40.0 °F 36.1 °F 73% 29.86 in 10.0 mi ESE 8.1 mph - N/A   Clear
3:15 AM 46.4 °F 41.1 °F 36.5 °F 68% 29.84 in 10.0 mi SE 11.5 mph - N/A   Clear
3:35 AM 47.3 °F - 36.3 °F 66% 29.84 in 10.0 mi SE 11.5 mph - N/A   Clear
3:55 AM 48.2 °F - 37.4 °F 66% 29.82 in 10.0 mi SE 13.8 mph - N/A   Clear
4:15 AM 48.0 °F - 36.5 °F 64% 29.81 in 10.0 mi SE 13.8 mph - N/A   Clear
4:35 AM 48.2 °F - 36.7 °F 64% 29.81 in 10.0 mi SE 11.5 mph 16.1 mph N/A   Clear
4:55 AM 47.7 °F - 36.9 °F 66% 29.81 in 10.0 mi SE 9.2 mph - N/A Thunderstorm Scattered Clouds
5:15 AM 47.8 °F - 37.6 °F 68% 29.80 in 10.0 mi SE 8.1 mph - N/A   Mostly Cloudy
5:35 AM 47.3 °F - 40.3 °F 77% 29.80 in 10.0 mi SE 8.1 mph - N/A Rain Rain
5:55 AM 46.4 °F 42.9 °F 42.8 °F 87% 29.79 in 5.0 mi SE 6.9 mph - N/A Rain , Thunderstorm Heavy Thunderstorms and Rain
6:15 AM 46.0 °F 41.0 °F 43.3 °F 90% 29.77 in 4.0 mi ESE 10.4 mph - 0.07 in Rain Heavy Rain
6:35 AM 46.0 °F 40.2 °F 43.7 °F 92% 29.75 in 7.0 mi ESE 12.7 mph - 0.11 in Rain Rain
6:55 AM 46.6 °F - 44.8 °F 93% 29.73 in 4.0 mi ESE 13.8 mph - 0.15 in Rain Rain
7:15 AM 48.7 °F - 47.1 °F 94% 29.72 in 5.0 mi SE 12.7 mph - N/A   Overcast
7:35 AM 50.4 °F - 48.6 °F 94% 29.71 in 5.0 mi SE 15.0 mph 18.4 mph 0.03 in Rain Light Rain
7:55 AM 51.6 °F - 49.6 °F 93% 29.70 in 7.0 mi SE 16.1 mph 19.6 mph 0.03 in Rain Rain
8:15 AM 52.7 °F - 50.7 °F 93% 29.70 in 7.0 mi SSE 13.8 mph - N/A   Overcast
8:35 AM 54.5 °F - 52.2 °F 92% 29.69 in 10.0 mi SSE 15.0 mph - N/A   Overcast
8:55 AM 56.1 °F - 53.1 °F 89% 29.68 in 10.0 mi South 17.3 mph - 0.01 in Rain Light Rain
9:15 AM 57.2 °F - 53.4 °F 87% 29.67 in 10.0 mi South 21.9 mph 27.6 mph N/A Rain Light Rain
9:35 AM 59.0 °F - 53.8 °F 83% 29.67 in 10.0 mi SSW 23.0 mph 31.1 mph N/A   Overcast
9:55 AM 58.3 °F - 53.8 °F 85% 29.67 in 10.0 mi SSW 21.9 mph 35.7 mph 0.02 in Rain Rain
10:15 AM 58.5 °F - 54.3 °F 86% 29.66 in 10.0 mi SSW 20.7 mph 28.8 mph N/A Rain Light Rain
10:35 AM 61.9 °F - 55.8 °F 80% 29.66 in 10.0 mi SW 29.9 mph 35.7 mph N/A   Mostly Cloudy
10:55 AM 62.8 °F - 54.7 °F 75% 29.67 in 10.0 mi SW 24.2 mph 36.8 mph N/A   Scattered Clouds
11:15 AM 63.3 °F - 54.1 °F 72% 29.67 in 10.0 mi SW 23.0 mph 34.5 mph N/A   Mostly Cloudy
11:35 AM 63.9 °F - 52.9 °F 67% 29.68 in 10.0 mi WSW 31.1 mph 39.1 mph N/A   Mostly Cloudy
11:55 AM 64.4 °F - 52.5 °F 65% 29.69 in 10.0 mi WSW 27.6 mph 43.7 mph N/A   Overcast
12:15 PM 63.7 °F - 52.2 °F 66% 29.70 in 10.0 mi WSW 23.0 mph 39.1 mph N/A   Overcast
12:35 PM 63.7 °F - 51.1 °F 64% 29.70 in 10.0 mi West 25.3 mph 41.4 mph N/A   Overcast
12:55 PM 64.9 °F - 51.4 °F 62% 29.71 in 10.0 mi West 20.7 mph 39.1 mph N/A   Overcast
1:15 PM 65.5 °F - 50.4 °F 58% 29.72 in 10.0 mi West 28.8 mph 43.7 mph N/A   Mostly Cloudy
1:35 PM 66.0 °F - 51.1 °F 59% 29.73 in 10.0 mi West 29.9 mph 38.0 mph N/A   Mostly Cloudy
1:55 PM 66.4 °F - 51.1 °F 58% 29.74 in 10.0 mi West 24.2 mph 38.0 mph N/A   Scattered Clouds
2:15 PM 67.1 °F - 50.0 °F 54% 29.75 in 10.0 mi West 29.9 mph 40.3 mph N/A   Mostly Cloudy
2:35 PM 68.4 °F - 50.9 °F 54% 29.76 in 10.0 mi West 25.3 mph 34.5 mph N/A   Mostly Cloudy
2:55 PM 68.4 °F - 50.7 °F 53% 29.76 in 10.0 mi West 21.9 mph 31.1 mph N/A   Mostly Cloudy
3:15 PM 68.2 °F - 50.4 °F 53% 29.76 in 10.0 mi West 19.6 mph 27.6 mph N/A   Scattered Clouds
3:35 PM 68.9 °F - 49.8 °F 51% 29.77 in 10.0 mi WNW 20.7 mph 28.8 mph N/A   Scattered Clouds
3:55 PM 70.0 °F - 50.0 °F 49% 29.78 in 10.0 mi WNW 16.1 mph 20.7 mph N/A   Scattered Clouds
4:15 PM 69.6 °F - 50.4 °F 50% 29.78 in 10.0 mi WNW 12.7 mph 18.4 mph N/A   Clear
4:35 PM 69.1 °F - 49.3 °F 49% 29.80 in 10.0 mi West 13.8 mph 21.9 mph N/A   Clear
4:55 PM 69.3 °F - 49.3 °F 49% 29.81 in 10.0 mi WNW 9.2 mph 17.3 mph N/A   Clear
5:15 PM 68.9 °F - 48.7 °F 49% 29.82 in 10.0 mi WNW 12.7 mph 19.6 mph N/A   Clear
5:35 PM 68.2 °F - 48.9 °F 50% 29.83 in 10.0 mi NW 11.5 mph 19.6 mph N/A   Clear
5:55 PM 60.8 °F - 46.4 °F 59% 29.84 in 10.0 mi NE 12.7 mph 18.4 mph N/A   Clear
6:15 PM 57.0 °F - 46.0 °F 67% 29.86 in 10.0 mi NE 9.2 mph - N/A   Clear
6:35 PM 51.6 °F - 43.0 °F 72% 29.87 in 10.0 mi ENE 13.8 mph - N/A   Clear
6:55 PM 48.2 °F - 42.8 °F 82% 29.89 in 10.0 mi NE 10.4 mph - N/A   Clear
7:15 PM 47.3 °F - 41.2 °F 79% 29.90 in 10.0 mi NE 6.9 mph - N/A   Clear
7:35 PM 45.9 °F 40.8 °F 40.8 °F 83% 29.90 in 10.0 mi NE 10.4 mph - N/A   Clear
7:55 PM 45.1 °F 41.4 °F 40.5 °F 84% 29.91 in 10.0 mi NE 6.9 mph - N/A   Clear
8:15 PM 44.1 °F 38.6 °F 39.6 °F 84% 29.91 in 10.0 mi NE 10.4 mph - N/A   Clear
8:35 PM 42.8 °F 37.5 °F 38.7 °F 85% 29.92 in 10.0 mi NE 9.2 mph - N/A   Clear
8:55 PM 42.3 °F 36.3 °F 38.5 °F 86% 29.93 in 10.0 mi NNE 10.4 mph - N/A   Clear
9:15 PM 41.7 °F 35.6 °F 38.3 °F 88% 29.94 in 10.0 mi NE 10.4 mph - N/A   Clear
9:35 PM 41.5 °F 36.4 °F 38.3 °F 88% 29.95 in 10.0 mi NE 8.1 mph - N/A   Clear
9:55 PM 41.4 °F 35.7 °F 38.3 °F 89% 29.96 in 10.0 mi NE 9.2 mph - N/A   Clear
10:15 PM 41.4 °F 35.7 °F 38.5 °F 89% 29.97 in 10.0 mi NE 9.2 mph - N/A   Clear
10:35 PM 41.5 °F 37.1 °F 38.7 °F 89% 29.98 in 7.0 mi East 6.9 mph - N/A   Clear
10:55 PM 41.4 °F 36.8 °F 38.8 °F 91% 29.99 in 5.0 mi East 6.9 mph - N/A   Scattered Clouds
11:15 PM 41.4 °F 37.6 °F 39.0 °F 91% 29.98 in 10.0 mi ENE 5.8 mph - N/A   Clear
11:35 PM 41.4 °F 38.4 °F 39.0 °F 91% 29.99 in 10.0 mi ENE 4.6 mph - N/A   Clear
11:55 PM 41.7 °F 38.8 °F 39.2 °F 91% 29.98 in 10.0 mi NNE 4.6 mph - N/A   Scattered Clouds